Location: Bieujac
(44.5398°N, 0.1549°W)
Time: 01:45:31
(UTC+00:00)

Daily predictions for brighter satellites

Satellite Brightness Start Highest point End
(mag) Time Altitude Azimuth Time Altitude Azimuth Time Altitude Azimuth
Cosmos 1980 Rocket 4.1 03:19:59 26° ESE 03:19:59 26° ESE 03:22:47 10° ESE
CZ-4C R/B 4.5 03:32:39 17° NNE 03:32:39 17° NNE 03:34:32 10° NNE
ATLAS 2AS CENTAUR R/B 4.3 03:31:58 26° N 03:34:25 31° NNE 03:40:46 10° E
SJ 16-02 3.9 03:37:49 18° E 03:37:49 18° E 03:40:12 10° NE
Centaur D AC-28 4.5 03:39:07 17° SSE 03:39:07 17° SSE 03:44:18 10° ESE
SL-4 R/B 4.1 03:59:44 29° NE 03:59:44 29° NE 04:02:40 10° ENE
USA 234 4.3 04:00:04 10° NE 04:05:37 31° N 04:05:49 31° N
PAYLOAD A 4.2 04:13:50 10° NNE 04:19:13 77° ESE 04:20:31 53° S
Meteor 2-2 Rocket 4.1 04:19:44 80° N 04:20:03 87° E 04:25:42 10° S
Cosmos 2082 Rocket 2.7 04:25:34 46° N 04:25:34 46° N 04:29:47 10° NNE
Cosmos 2112 Rocket 4.0 04:32:45 68° SSW 04:32:45 68° SSW 04:37:32 10° SSE
Cosmos 158 Rocket 3.9 04:34:13 59° N 04:35:06 78° ENE 04:39:59 10° SSE
Cosmos 1680 Rocket 4.1 04:40:19 43° SSW 04:40:19 43° SSW 04:44:06 10° S
Cosmos 1833 Rocket 4.0 04:41:03 26° NNW 04:41:03 26° NNW 04:44:04 10° N
Lacrosse 5 2.5 04:42:40 40° NNW 04:42:40 40° NNW 04:46:58 10° NE
COSMOS 2455 3.2 04:40:31 24° NNW 04:44:10 62° NE 04:50:06 10° SE
MSX 3.9 04:41:27 10° N 04:47:01 52° WNW 04:47:19 52° W
Cosmos 2100 Rocket 4.3 04:41:15 10° S 04:47:22 66° E 04:53:28 10° NNE
Cosmos 990 Rocket 3.8 04:46:45 38° SSW 04:48:48 79° WNW 04:54:03 10° NNE
Cosmos 1447 Rocket 4.4 04:44:13 10° NNW 04:50:31 67° W 04:56:46 10° S
CZ-2C R/B 2.2 04:47:00 10° N 04:51:51 66° WNW 04:53:05 47° SW
ATLAS CENTAUR R/B 3.4 04:48:51 10° S 04:53:16 34° ESE 04:57:36 10° NE
NOSS 3-3 (A) 3.8 04:51:48 36° SW 04:54:27 75° NW 05:01:07 10° NE
NOSS 3-3 (C) 3.8 04:51:53 35° SW 04:54:33 75° NW 05:01:13 10° NE
Cosmos 2360 Rocket 3.8 04:50:30 10° N 04:55:33 31° NE 05:00:34 10° ESE
SL-16 R/B 2.5 04:52:28 16° NNW 04:57:00 67° ENE 05:02:38 10° SE
ASTEX 1 3.3 04:52:45 10° S 04:57:38 61° W 05:02:35 10° NNW
Meteor 2-20 4.3 04:52:07 10° NNW 04:58:15 67° W 05:04:19 10° S
Cosmos 1980 Rocket 2.7 05:01:50 37° WSW 05:01:50 37° WSW 05:06:40 10° S
Cosmos 1802 Rocket 4.4 04:57:05 10° S 05:03:27 68° E 05:09:48 10° NNE
Meteor PRIRODA 3.5 05:00:08 10° NNE 05:03:50 89° E 05:07:28 10° SSW
BREEZE-M DEB (TANK) 2.7 05:05:33 52° SSW 05:05:33 52° SSW 05:09:55 10° SE
ALOS 3.5 05:01:33 10° NNE 05:06:01 43° E 05:10:27 10° S
Cosmos 2322 Rocket 2.5 05:00:58 13° NNW 05:06:03 68° ENE 05:11:42 10° SE
Cosmos 2151 3.0 05:02:47 10° S 05:07:06 84° E 05:11:25 10° N
Cosmos 1766 Rocket 3.6 05:03:46 10° S 05:08:04 79° E 05:12:27 10° N
Okean 3 Rocket 3.5 05:05:18 10° SSW 05:09:49 77° W 05:14:20 10° N
Cosmos 1408 3.4 05:08:19 10° S 05:11:55 53° E 05:15:31 10° NNE
Lacrosse 5 rocket 3.3 05:10:59 13° N 05:11:55 14° NNE 05:13:58 10° NE
STARLINK-75 4.3 05:09:31 19° SSW 05:12:11 51° SE 05:16:13 10° ENE
STARLINK-54 4.5 05:10:56 16° SSW 05:13:59 48° SE 05:17:59 10° ENE
H-2A R/B 4.0 05:10:21 10° N 05:12:35 23° NNW 05:12:35 23° NNW
SJ 16-02 1.6 05:14:56 41° W 05:15:22 42° WNW 05:19:34 10° N
Cosmos 2061 Rocket 4.2 05:11:10 10° S 05:17:23 75° E 05:23:36 10° NNE
CZ-4B R/B 4.4 05:13:12 10° N 05:17:30 45° WNW 05:21:46 10° SW
COSMO-SKYMED 1 2.5 05:13:10 10° SSE 05:17:31 86° WSW 05:21:53 10° NNW
STARLINK-37 4.3 05:15:15 15° SSW 05:18:27 53° SE 05:22:30 10° ENE
STARLINK-55 4.4 05:15:35 15° SSW 05:18:52 51° SE 05:22:54 10° ENE
Shenzhou-11 Module 2.5 05:19:57 39° S 05:19:57 39° S 05:22:25 10° ESE
CZ-4C R/B 4.3 05:17:50 12° NNW 05:20:19 14° N 05:23:50 10° NNE
STARLINK-24 4.3 05:17:03 15° SW 05:20:20 53° SE 05:24:23 10° ENE
STARLINK-34 4.3 05:17:20 15° SW 05:20:36 54° SE 05:24:39 10° ENE
Cosmos 2173 Rocket 3.9 05:15:07 10° SSW 05:21:23 75° W 05:27:36 10° N
STARLINK-81 4.4 05:18:32 13° SSW 05:22:06 51° SE 05:26:08 10° ENE
Cosmos 1898 Rocket 3.9 05:21:35 24° WSW 05:24:07 39° WNW 05:29:04 10° N
STARLINK-77 4.3 05:21:43 12° SW 05:25:24 54° SE 05:29:28 10° ENE
ATLAS 2AS CENTAUR R/B 2.8 05:19:26 13° NW 05:26:25 89° WSW 05:33:27 10° SE
STARLINK-25 4.2 05:23:24 12° SW 05:27:08 56° SE 05:31:13 10° ENE
Helios 1A Rocket 3.6 05:23:42 10° NNE 05:27:46 57° ESE 05:31:46 10° S
STARLINK-71 4.0 05:25:26 13° SW 05:28:58 63° SE 05:33:04 10° ENE
STARLINK-79 4.1 05:26:31 11° SW 05:30:22 60° SE 05:34:28 10° ENE
STARLINK-78 4.0 05:28:11 11° SW 05:32:04 62° SE 05:36:11 10° ENE
Cosmos 1937 Rocket 3.8 05:28:24 10° SW 05:33:17 43° WNW 05:38:11 10° N
STARLINK-80 3.9 05:32:25 31° WNW 05:33:40 42° NNW 05:37:21 10° NE
STARLINK-49 4.0 05:31:22 11° SW 05:35:23 65° SE 05:39:30 10° ENE
Meteor 1-31 Rocket 4.0 05:32:37 10° NNW 05:34:49 22° NW 05:34:49 22° NW
Cosmos 1892 3.2 05:33:02 10° SW 05:36:33 36° WNW 05:40:04 10° N
FENGYUN 3A 3.8 05:31:28 10° NNE 05:36:55 81° ESE 05:42:19 10° SSW
STARLINK-27 3.9 05:32:57 10° SW 05:37:01 67° SE 05:41:09 10° ENE
Cosmos 1606 3.7 05:34:21 10° N 05:38:02 47° ENE 05:41:43 10° SSE
SL-4 R/B 2.5 05:35:21 22° NW 05:38:30 72° NNE 05:43:18 10° ESE
STARLINK-74 3.9 05:34:35 10° SW 05:38:42 69° SE 05:42:50 10° ENE
CZ-4B R/B 3.5 05:33:45 10° NNE 05:39:09 71° ESE 05:44:37 10° S
Cosmos 2333 Rocket 4.1 05:34:22 10° N 05:39:13 27° NE 05:44:02 10° ESE
STARLINK-39 3.8 05:36:16 10° SW 05:40:23 71° SE 05:44:31 10° ENE
METEOR-M 4.1 05:35:01 10° NNE 05:40:24 90° W 05:45:44 10° SSW
Cosmos 2058 4.4 05:41:50 19° NW 05:41:50 19° NW 05:43:52 10° NNW
STARLINK 3.8 05:37:52 10° SW 05:41:59 74° SE 05:46:08 10° ENE
Cosmos 1484 Rocket 3.1 05:38:14 10° N 05:42:03 43° WNW 05:45:50 10° SW
BREEZE-M DEB (TANK) 2.2 05:40:40 26° W 05:42:12 75° SSW 05:44:53 10° ESE
STARLINK-42 3.7 05:38:38 10° SW 05:42:45 77° SE 05:46:55 10° ENE
CZ-4B R/B 4.2 05:41:14 10° NNW 05:42:46 18° NW 05:42:46 18° NW
STARLINK-21 3.7 05:40:19 10° SW 05:44:27 77° SE 05:48:37 10° ENE
USA 116 3.2 05:41:41 10° S 05:44:51 63° W 05:48:20 10° NNW
Cosmos 2150 Rocket 4.0 05:39:49 10° SSW 05:45:17 81° WNW 05:50:44 10° NNE
Cosmos 2228 Rocket 3.8 05:41:25 10° N 05:45:57 58° E 05:50:27 10° SSE
Okean O Rocket 1.5 05:42:35 10° NNE 05:46:58 89° WNW 05:51:18 10° SSW
Cosmos 2219 Rocket 4.0 05:42:08 10° N 05:47:01 28° NE 05:51:50 10° ESE
STARLINK-45 3.6 05:43:13 10° SW 05:47:22 87° SE 05:51:31 10° ENE
USA 234 4.3 05:41:48 10° ENE 05:47:33 34° NNE 05:53:09 11° NW
Cosmos 1125 Rocket 4.2 05:43:30 10° S 05:48:41 60° ESE 05:53:53 10° NNE
STARLINK-76 3.6 05:46:10 10° SW 05:50:18 84° SE 05:54:28 10° ENE
Cosmos 2346 Rocket 4.4 05:44:16 10° N 05:50:22 79° W 05:56:24 10° S
STARLINK 3.6 05:47:50 10° SW 05:51:59 87° SE 05:56:08 10° ENE
Cosmos 1400 Rocket 3.6 05:48:25 10° N 05:52:27 54° ENE 05:56:23 10° SSE
STARLINK-32 3.6 05:49:31 10° SW 05:53:40 89° SE 05:57:50 10° ENE
Gbstr 26 Del rocket 3.5 05:51:35 19° WNW 05:53:43 34° NNW 05:57:10 10° NE
BREEZE-M DEB (TANK) 3.4 05:53:58 13° SW 05:54:31 14° SW 05:55:50 10° S
NOAA 6 4.0 05:50:07 10° NNE 05:55:17 84° WNW 06:00:23 10° SSW
STARLINK-40 3.6 05:51:11 10° SW 05:55:20 89° NNW 05:59:30 10° ENE
Cosmos 1825 2.1 05:52:16 10° SSW 05:55:59 59° W 05:59:43 10° N
PAYLOAD B 4.2 05:50:37 10° N 05:56:04 65° WNW 06:01:29 10° SSW
STARLINK-44 3.6 05:52:52 10° WSW 05:57:01 87° NNW 06:01:11 10° NE
STARLINK-36 3.6 05:54:32 10° WSW 05:58:40 85° NNW 06:02:50 10° NE
STARLINK-48 4.2 05:57:19 16° W 05:59:59 37° NNW 06:03:38 10° NE
ADEOS Rocket 4.5 05:52:38 10° SE 06:00:02 50° ENE 06:07:06 10° N
BREEZE-M DEB (TANK) 3.6 05:50:41 13° WNW 06:00:42 57° SW 06:04:11 10° SE
Cosmos 1437 2.5 05:58:21 10° SSW 06:01:23 67° WNW 06:04:26 10° N
Abrixas rocket 2.2 05:59:41 10° WSW 06:02:41 69° SSE 06:05:41 10° ENE
Cosmos 1459 Rocket 4.5 05:59:25 10° SW 06:05:03 36° WNW 06:10:49 10° N
STARLINK-35 3.6 06:01:07 10° WSW 06:05:15 77° NNW 06:09:25 10° NE
Cosmos 1151 Rocket 3.6 06:02:33 10° NNW 06:06:34 36° W 06:10:33 10° SSW
BREEZE-M DEB 4.2 05:56:45 13° WNW 06:06:48 82° SSW 06:10:53 10° ESE
STARLINK-51 3.6 06:02:49 10° WSW 06:06:58 75° NNW 06:11:08 10° NE
Cosmos 1328 Rocket 4.2 06:04:32 10° NNW 06:08:24 32° W 06:12:13 10° SSW
STARLINK-30 3.6 06:04:31 10° WSW 06:08:39 73° NNW 06:12:48 10° NE
H-2A R/B 3.9 06:05:17 10° NNE 06:08:53 47° E 06:12:27 10° S
Cosmos 2082 Rocket 3.9 06:07:28 11° WNW 06:09:29 13° NW 06:12:00 10° NNW
Cosmos 1515 Rocket 3.7 06:05:34 10° NNW 06:09:46 50° W 06:13:57 10° SSW
STARLINK-33 3.6 06:06:09 10° WSW 06:10:17 71° NNW 06:14:27 10° NE
Cosmos 1725 Rocket 4.1 06:04:41 10° SSW 06:10:50 58° WNW 06:17:04 10° N
STARLINK-50 3.6 06:07:48 10° WSW 06:11:56 70° NNW 06:16:05 10° NE
Cosmos 2016 Rocket 4.3 06:07:22 10° SSW 06:13:18 45° WNW 06:19:22 10° N
Cosmos 1743 Rocket 3.5 06:09:42 10° SSW 06:14:00 61° W 06:18:17 10° N
STARLINK-56 3.6 06:11:07 10° WSW 06:15:15 66° NNW 06:19:23 10° NE
Cosmos 372 Rocket 4.3 06:12:09 10° SW 06:17:03 44° WNW 06:21:59 10° N
Starlink (trailer) 3.6 06:12:58 10° WSW 06:17:05 65° NNW 06:21:14 10° NE
STARLINK-38 3.7 06:14:30 10° WSW 06:18:36 63° NNW 06:22:43 10° NE
STARLINK-26 3.7 06:15:23 10° WSW 06:19:25 56° NNW 06:23:28 10° NE
Cosmos 2237 4.3 06:13:59 10° NNW 06:19:41 68° WSW 06:25:20 10° SSE
STARLINK-65 3.7 06:16:12 10° WSW 06:20:18 62° NNW 06:24:26 10° NE
COSMOS 2487 3.2 06:17:41 10° SW 06:20:45 29° WNW 06:23:50 10° N
IRS-1C Rocket 4.4 06:17:38 10° NNE 06:22:56 77° ESE 06:28:11 10° S
STARLINK-61 4.0 06:19:35 10° W 06:23:28 44° NNW 06:27:21 10° NE
STARLINK-69 3.8 06:21:12 10° WSW 06:25:17 57° NNW 06:29:23 10° NE
Lacrosse 5 3.4 06:22:26 10° WNW 06:26:15 21° N 06:30:04 10° NE
STARLINK-66 3.8 06:22:54 10° WSW 06:26:59 56° NNW 06:31:05 10° NE
STARLINK-41 3.8 06:24:30 10° WSW 06:28:34 55° NNW 06:32:40 10° NE
COSMOS 2455 4.0 06:24:56 10° NW 06:29:36 24° WSW 06:34:14 10° SSW
STARLINK-64 3.8 06:26:12 10° WSW 06:30:15 54° NNW 06:34:21 10° NE
Tsikada Rocket 4.4 06:25:03 10° NNW 06:31:05 46° W 06:37:02 10° SSW
COSMOS 2428 3.4 06:25:38 10° NNW 06:31:16 57° ENE 06:36:53 10° SE
Cosmos 1238 Rocket 4.1 06:25:50 10° SSW 06:32:22 61° W 06:38:21 10° N
